Regional Weather Roundup
Issued by NWS

Home | Current Version | Previous Version | Graphics & Text | Print | Product List | Glossary Off
Versions: 1 2 3 4 5 6 7 8 9 10 11 12 13 14 15 16 17 18 19 20 21 22 23 24 25 26 27 28 29 30 31 32 33 34 35 36 37 38 39 40 41 42 43 44 45 46 47 48 49 50

000
ASUS43 KMKX 261411
RWRWI

WISCONSIN REGIONAL WEATHER ROUNDUP
NATIONAL WEATHER SERVICE MILWAUKEE/SULLIVAN WI
900 AM CDT SAT MAY 26 2018

NOTE: "FAIR" INDICATES FEW OR NO CLOUDS BELOW 12,000 FEET WITH NO
SIGNIFICANT WEATHER AND/OR OBSTRUCTIONS TO VISIBILITY.

WIZ001-002-006>008-014>016-023>028-261500-
NORTHWEST WISCONSIN

CITY           SKY/WX    TMP DP  RH WIND       PRES   REMARKS
SUPERIOR ARPT  FAIR      72  61  68 W8        29.67R
ASHLAND        FAIR      74  60  61 SW10      29.68F
HAYWARD        FAIR      72  62  71 S7        29.71S
SIREN          FAIR      74  60  59 W7        29.71S
CUMBERLAND     FAIR      70  61  73 SW6       29.73S
RICE LAKE      FAIR      72  62  72 S6        29.74S
CHETEK         FAIR      72  64  74 SW6       29.73S
LADYSMITH      FAIR      71  63  76 SW6       29.75F
EAU CLAIRE     FAIR      72  63  73 SW8       29.72F
MENOMONIE      FAIR      73  64  74 S5        29.73S
NEW RICHMOND   FAIR      73  62  68 CALM      29.72S
OSCEOLA        FAIR      72  64  75 SW5       29.74S
$$

WIZ003>005-009-010-017-018-261500-
NORTH CENTRAL WISCONSIN

CITY           SKY/WX    TMP DP  RH WIND       PRES   REMARKS
MANITOWISH WTR FAIR      72  61  68 W3        29.74F
ARBOR VITAE    FAIR      74  61  61 W6        29.75F
WOODRUFF       FAIR      74  61  61 W6        29.75F
RHINELANDER    FAIR      77  60  55 W7        29.77R
EAGLE RIVER    FAIR      72  58  60 W7        29.75S
LAND O LAKES   FAIR      73  59  60 CALM      29.77R
PHILLIPS       FAIR      71  62  74 S6        29.75S
TOMAHAWK       FAIR      73  58  59 W6        29.77S
MEDFORD        FAIR      69  62  78 W9        29.77R
MERRILL        FAIR      73  63  71 NW7       29.76S
$$

WIZ029-030-035-036-043>047-261500-
CENTRAL WISCONSIN

CITY           SKY/WX    TMP DP  RH WIND       PRES   REMARKS
WAUSAU         NOT AVBL
MOSINEE        MOSUNNY   72  63  73 W8        29.78R
MARSHFIELD     FAIR      73  63  70 W8        29.76R
STEVENS POINT  FAIR      70  61  74 W7        29.78R
WAUPACA        FAIR      77  62  61 SW3       29.77R
WAUTOMA        FAIR      74  62  66 W8        29.77S
WISC RAPIDS    FAIR      74  61  63 SW9       29.77S
CAMP DOUGLAS   FAIR      74  67  78 W3        29.77R
$$

WIZ011>013-019>022-031-037>040-048>050-261500-
NORTHEAST WISCONSIN

CITY           SKY/WX    TMP DP  RH WIND       PRES   REMARKS
ANTIGO         FAIR      73  59  63 W7        29.78R
SHAWANO        FAIR      75  63  64 W6        29.75R
OCONTO         FAIR      75  63  65 W8        29.73S
STURGEON BAY   FAIR      75  64  68 W9        29.75R
GREEN BAY      FAIR      76  62  62 SW6       29.75R
MANITOWOC      NOT AVBL
APPLETON       MOSUNNY   73  57  56 SW5       29.76R
CLINTONVILLE   FAIR      73  61  65 W5        29.76S
OSHKOSH        FAIR      75  62  64 W6        29.76S
$$

WIZ032>034-041-042-053>061-261500-
SOUTHWEST WISCONSIN

CITY           SKY/WX    TMP DP  RH WIND       PRES   REMARKS
LA CROSSE      FAIR      72  65  78 S7        29.75S
SPARTA         FAIR      70  63  78 W7        29.78R
VIROQUA        FAIR      72  66  81 W8        29.79S
BOSCOBEL       FAIR      72  63  73 SW6       29.78S
PRAIRIE DU CHI FAIR      72  63  72 CALM      29.77S
PLATTEVILLE    FAIR      72  66  80 SW5       29.80S
$$

WIZ056-057-062-063-064-067-068-261500-
SOUTH CENTRAL WISCONSIN

CITY           SKY/WX    TMP DP  RH WIND       PRES   REMARKS
REEDSBURG      FAIR      72  63  72 SW8       29.78S
BARABOO/DELLS  FAIR      73  60  62 W9        29.78S
LONE ROCK      FAIR      73  64  73 W5        29.78S
MINERAL POINT  FAIR      73  64  73 SW6       29.80S
MADISON        FAIR      73  61  65 VRB5      29.78R
MIDDLETON      FAIR      75  61  61 W5        29.80R
WATERTOWN      FAIR      74  61  64 W3        29.78S
MONROE         FAIR      72  59  64 SW7       29.80S
JANESVILLE     MOSUNNY   73  63  68 W3        29.79R
$$

WIZ051-052-058>065-066-070>072-261500-
SOUTHEAST WISCONSIN

CITY           SKY/WX    TMP DP  RH WIND       PRES   REMARKS
MILWAUKEE      FAIR      78  59  51 W9        29.77R
WAUKESHA       SUNNY     73  59  60 W10       29.79S
MILWAUKEE/TIMM SUNNY     73  55  53 W12       29.78R
RACINE         FAIR      77  60  55 W8        29.78S
BURLINGTON     FAIR      78  58  50 NW6       29.78S
KENOSHA        FAIR      76  62  62 W8        29.78R
FOND DU LAC    FAIR      76  61  59 W7        29.77S
SHEBOYGAN      FAIR      77  61  57 NW8       29.75S
WEST BEND      FAIR      75  59  57 W12       29.77S
JUNEAU         FAIR      73  60  63 SW5       29.79S
$$

LSZ147-162-261500-
LAKE SUPERIOR

STATION/POSITION TIME  TEMP    WIND        PRES    WAVE
                       AIR SEA DIR/SP/G            HT/PER
                 (UTC) (F)     (DEG/KT/KT) (MB)    (FT/S)
W MID LAKE BUOY  1350   45 36   70/  6/ 14 1004.6R   1
DEVILS ISLAND    1400          350/  6/  7 1005.4R
SAXON HARBOR     1330   73     200/  5/  7 1004.4F
$$

LMZ867-665-643>646-261500-
LAKE MICHIGAN

STATION/POSITION TIME  TEMP    WIND        PRES    WAVE
                       AIR SEA DIR/SP/G            HT/PER
                 (UTC) (F)     (DEG/KT/KT) (MB)    (FT/S)
N MID LAKE BUOY  1350   44 38  120/  8/ 12 1007.5R   1/ 4
NORTHPORT PIER   1340   55     330/  3/  3 1006.8R
KEWAUNEE LAKESHO 1348   74     270/  9/ 12 1006.4R
SHEBOYGAN LAKESH 1400   75     300/  8/ 10 1006.9R
PORT WASHINGTON  1340   76     290/  4/ 11 1008.5S
ATWATER BUOY     1307   64 49  280/  8/  8 1008.1    1
MILWAUKEE LAKESH 1350   76     290/ 10/ 12   N/A
S MID LAKE BUOY  1350   50 39  170/  6/  8 1008.7R   0
KENOSHA   LAKESH 1400   75                 1008.1
$$

TC  - TEMPERATURE IN CELSIUS
VSB - VISIBILITY IN STATUTE MILES
WCI - WIND CHILL INDEX
HX  - HEAT INDEX




USA.gov is the U.S. government's official web portal to all federal, state and local government web resources and services.